QPF
0.00 0.00 0.00 0.00 0.00 0.00 0.00 0.00 0.00 0.00 0.00 0.00 0.00 0.00 0.00 0.00 0.00 0.00 0.00 0.00 0.00 0.00 0.00 0.00 0.00 0.00 0.00 0.00 0.00 0.00 0.00 0.00 0.00 0.00 0.00 0.00 0.00 0.00 0.00 0.00 0.00 0.00 0.00
0.00 0.00 0.00 0.00 0.00 0.00 0.00 0.00 0.00 0.00 0.00 0.00 0.00 0.00 0.00 0.00 0.00 0.00 0.00 0.00 0.00 0.00 0.00 0.00 0.01 0.01 0.01 0.00 0.00 0.00 0.00 0.00 0.00 0.00 0.00 0.00 0.00 0.00 0.00 0.00 0.00 0.00 0.00
0.00 0.00 0.00 0.00 0.00 0.00 0.00 0.00 0.00 0.00 0.00 0.00 0.00 0.00 0.00 0.00 0.00 0.00 0.00 0.00 0.00 0.00 0.00 0.00 0.01 0.01 0.01 0.01 0.01 0.01 0.01 0.00 0.00 0.00 0.00 0.00 0.00 0.00 0.00 0.00 0.00 0.00 0.00
0.00 0.00 0.00 0.00 0.00 0.00 0.00 0.00 0.00 0.00 0.00 0.00 0.00 0.00 0.00 0.00 0.00 0.00 0.00 0.00 0.00 0.00 0.00 0.00 0.01 0.01 0.02 0.02 0.02 0.02 0.02 0.01 0.00 0.00 0.00 0.00 0.00 0.00 0.00 0.00 0.00 0.00 0.00
0.00 0.00 0.00 0.00 0.00 0.00 0.00 0.00 0.00 0.00 0.00 0.00 0.00 0.00 0.00 0.00 0.00 0.00 0.00 0.00 0.00 0.00 0.00 0.01 0.01 0.01 0.02 0.02 0.02 0.03 0.03 0.03 0.02 0.01 0.00 0.00 0.00 0.00 0.00 0.00 0.00 0.00 0.00
0.01 0.01 0.00 0.01 0.01 0.01 0.01 0.01 0.01 0.01 0.01 0.01 0.01 0.01 0.00 0.00 0.00 0.00 0.00 0.00 0.00 0.00 0.01 0.01 0.01 0.01 0.01 0.02 0.02 0.03 0.04 0.04 0.04 0.02 0.01 0.01 0.00 0.00 0.00 0.00 0.00 0.00 0.00
0.01 0.01 0.01 0.01 0.02 0.02 0.01 0.01 0.01 0.01 0.01 0.02 0.01 0.01 0.00 0.01 0.01 0.01 0.01 0.01 0.01 0.01 0.01 0.01 0.02 0.01 0.01 0.02 0.03 0.03 0.04 0.06 0.07 0.06 0.05 0.03 0.02 0.02 0.01 0.01 0.01 0.01 0.01
0.02 0.02 0.02 0.02 0.02 0.02 0.01 0.01 0.02 0.02 0.02 0.03 0.03 0.03 0.01 0.00 0.00 0.01 0.01 0.01 0.01 0.02 0.02 0.02 0.02 0.02 0.02 0.03 0.03 0.04 0.05 0.08 0.11 0.12 0.11 0.08 0.07 0.06 0.05 0.05 0.04 0.03 0.02
0.02 0.01 0.01 0.01 0.02 0.02 0.02 0.02 0.02 0.03 0.03 0.03 0.04 0.05 0.03 0.01 0.01 0.00 0.01 0.01 0.02 0.02 0.02 0.03 0.03 0.03 0.03 0.04 0.06 0.08 0.10 0.11 0.14 0.17 0.17 0.14 0.12 0.11 0.11 0.11 0.11 0.08 0.05
0.02 0.02 0.02 0.02 0.02 0.02 0.02 0.02 0.03 0.03 0.03 0.02 0.01 0.02 0.03 0.02 0.02 0.01 0.01 0.01 0.01 0.01 0.02 0.02 0.03 0.04 0.04 0.06 0.08 0.11 0.14 0.15 0.17 0.20 0.22 0.21 0.19 0.17 0.15 0.14 0.14 0.12 0.09
0.02 0.02 0.02 0.02 0.01 0.02 0.02 0.02 0.02 0.02 0.02 0.02 0.02 0.02 0.02 0.02 0.02 0.03 0.02 0.01 0.01 0.01 0.02 0.03 0.03 0.04 0.05 0.07 0.08 0.12 0.16 0.19 0.23 0.26 0.27 0.27 0.24 0.22 0.20 0.18 0.16 0.14 0.12
0.01 0.01 0.01 0.01 0.01 0.01 0.01 0.01 0.02 0.02 0.02 0.02 0.03 0.03 0.03 0.02 0.02 0.03 0.03 0.02 0.02 0.02 0.02 0.03 0.05 0.07 0.08 0.09 0.11 0.15 0.19 0.24 0.29 0.33 0.34 0.33 0.30 0.28 0.26 0.23 0.21 0.19 0.17
0.00 0.00 0.00 0.00 0.00 0.01 0.01 0.01 0.01 0.01 0.01 0.01 0.02 0.02 0.02 0.02 0.02 0.03 0.03 0.02 0.02 0.02 0.03 0.04 0.05 0.07 0.10 0.12 0.15 0.19 0.21 0.25 0.27 0.31 0.34 0.37 0.37 0.32 0.26 0.22 0.19 0.18 0.16
0.00 0.00 0.00 0.00 0.00 0.00 0.00 0.00 0.00 0.00 0.01 0.01 0.01 0.01 0.02 0.02 0.02 0.02 0.02 0.03 0.04 0.04 0.04 0.04 0.06 0.08 0.10 0.13 0.16 0.18 0.19 0.23 0.25 0.28 0.32 0.34 0.32 0.25 0.19 0.16 0.14 0.13 0.11
0.00 0.00 0.00 0.00 0.00 0.00 0.00 0.00 0.00 0.00 0.00 0.00 0.00 0.00 0.00 0.00 0.01 0.01 0.01 0.02 0.04 0.05 0.04 0.04 0.05 0.07 0.09 0.11 0.14 0.15 0.15 0.20 0.21 0.22 0.24 0.26 0.23 0.19 0.16 0.13 0.11 0.10 0.08
0.00 0.00 0.00 0.00 0.00 0.00 0.00 0.00 0.00 0.00 0.00 0.00 0.00 0.00 0.00 0.00 0.00 0.00 0.01 0.02 0.03 0.04 0.04 0.03 0.04 0.05 0.06 0.08 0.11 0.10 0.11 0.14 0.15 0.16 0.16 0.17 0.16 0.14 0.12 0.10 0.09 0.07 0.06
0.00 0.00 0.00 0.00 0.00 0.00 0.00 0.00 0.00 0.00 0.00 0.00 0.00 0.00 0.00 0.00 0.00 0.00 0.00 0.00 0.01 0.02 0.03 0.04 0.04 0.05 0.05 0.06 0.06 0.06 0.07 0.08 0.09 0.10 0.10 0.10 0.09 0.09 0.08 0.07 0.06 0.04 0.04
0.00 0.00 0.00 0.00 0.00 0.00 0.00 0.00 0.00 0.00 0.00 0.00 0.00 0.00 0.00 0.00 0.00 0.00 0.00 0.00 0.01 0.01 0.02 0.02 0.02 0.02 0.03 0.03 0.04 0.04 0.04 0.04 0.04 0.05 0.05 0.05 0.05 0.04 0.04 0.03 0.03 0.02 0.02
0.00 0.00 0.00 0.00 0.00 0.00 0.00 0.00 0.00 0.00 0.00 0.00 0.00 0.00 0.00 0.00 0.00 0.00 0.00 0.00 0.00 0.00 0.01 0.01 0.01 0.01 0.01 0.02 0.02 0.02 0.02 0.02 0.02 0.02 0.02 0.02 0.02 0.02 0.02 0.01 0.01 0.01 0.01
0.00 0.00 0.00 0.00 0.00 0.00 0.00 0.00 0.00 0.00 0.00 0.00 0.00 0.00 0.00 0.00 0.00 0.00 0.00 0.00 0.00 0.00 0.00 0.00 0.01 0.01 0.01 0.01 0.01 0.01 0.01 0.01 0.01 0.01 0.01 0.01 0.01 0.01 0.01 0.01 0.01 0.00 0.00
0.00 0.00 0.00 0.00 0.00 0.00 0.00 0.00 0.00 0.00 0.00 0.00 0.00 0.00 0.00 0.00 0.00 0.00 0.00 0.00 0.00 0.00 0.00 0.01 0.01 0.01 0.01 0.01 0.01 0.01 0.01 0.01 0.01 0.00 0.00 0.00 0.00 0.00 0.00 0.00 0.00 0.00 0.00
0.00 0.00 0.00 0.00 0.00 0.00 0.00 0.00 0.00 0.00 0.00 0.00 0.00 0.00 0.00 0.00 0.00 0.00 0.00 0.00 0.00 0.00 0.01 0.01 0.01 0.01 0.01 0.01 0.00 0.00 0.00 0.00 0.00 0.00 0.00 0.00 0.00 0.00 0.00 0.00 0.00 0.00 0.00
0.00 0.00 0.00 0.00 0.00 0.00 0.00 0.00 0.00 0.00 0.00 0.00 0.00 0.00 0.00 0.00 0.00 0.00 0.00 0.00 0.00 0.00 0.00 0.00 0.00 0.00 0.00 0.00 0.00 0.00 0.00 0.00 0.00 0.00 0.00 0.00 0.00 0.00 0.00 0.00 0.00 0.00 0.00
0.00 0.00 0.00 0.00 0.00 0.00 0.00 0.00 0.00 0.00 0.00 0.00 0.00 0.00 0.00 0.00 0.00 0.00 0.00 0.00 0.00 0.00 0.00 0.00 0.00 0.00 0.00 0.00 0.00 0.00 0.00 0.00 0.00 0.00 0.00 0.00 0.00 0.00 0.00 0.00 0.00 0.00 0.00
0.00 0.00 0.00 0.00 0.00 0.00 0.00 0.00 0.00 0.00 0.00 0.00 0.00 0.00 0.00 0.00 0.00 0.00 0.00 0.00 0.00 0.00 0.00 0.00 0.00 0.00 0.00 0.00 0.00 0.00 0.00 0.00 0.00 0.00 0.00 0.00 0.00 0.00 0.00 0.00 0.00 0.00 0.00
0.00 0.00 0.00 0.00 0.00 0.00 0.00 0.00 0.00 0.00 0.00 0.00 0.00 0.00 0.00 0.00 0.00 0.00 0.00 0.00 0.00 0.00 0.00 0.00 0.00 0.00 0.00 0.00 0.00 0.00 0.00 0.00 0.00 0.00 0.00 0.00 0.00 0.00 0.00 0.00 0.00 0.00 0.00
MSLP
1020.88 1020.99 1021.05 1021.08 1021.13 1021.20 1021.31 1021.47 1021.66 1021.85 1022.04 1022.19 1022.31 1022.38 1022.42 1022.44 1022.46 1022.48 1022.51 1022.55 1022.59 1022.63 1022.67 1022.71 1022.76 1022.82 1022.90 1023.00 1023.12 1023.27 1023.42 1023.56 1023.69 1023.80 1023.88 1023.95 1024.00 1024.04 1024.07 1024.10 1024.12 1024.13 1024.14
1020.65 1020.75 1020.82 1020.88 1020.95 1021.06 1021.20 1021.37 1021.57 1021.77 1021.95 1022.10 1022.19 1022.24 1022.25 1022.24 1022.22 1022.20 1022.19 1022.19 1022.22 1022.25 1022.29 1022.33 1022.39 1022.47 1022.57 1022.70 1022.85 1023.02 1023.20 1023.39 1023.57 1023.73 1023.87 1023.98 1024.07 1024.14 1024.19 1024.23 1024.25 1024.26 1024.27
1020.32 1020.44 1020.54 1020.64 1020.75 1020.90 1021.07 1021.26 1021.47 1021.67 1021.84 1021.96 1022.03 1022.05 1022.03 1021.98 1021.91 1021.85 1021.79 1021.76 1021.75 1021.77 1021.80 1021.85 1021.92 1022.02 1022.14 1022.29 1022.47 1022.67 1022.88 1023.11 1023.34 1023.55 1023.74 1023.91 1024.06 1024.16 1024.24 1024.30 1024.33 1024.34 1024.35
1019.92 1020.06 1020.20 1020.35 1020.51 1020.70 1020.90 1021.11 1021.32 1021.51 1021.66 1021.76 1021.81 1021.80 1021.74 1021.66 1021.56 1021.45 1021.36 1021.30 1021.26 1021.25 1021.27 1021.33 1021.41 1021.52 1021.66 1021.83 1022.02 1022.25 1022.49 1022.74 1023.01 1023.27 1023.52 1023.74 1023.94 1024.09 1024.21 1024.29 1024.33 1024.36 1024.37
1019.46 1019.63 1019.81 1020.00 1020.21 1020.42 1020.64 1020.86 1021.06 1021.24 1021.37 1021.45 1021.48 1021.46 1021.39 1021.29 1021.17 1021.04 1020.93 1020.84 1020.78 1020.76 1020.78 1020.83 1020.92 1021.04 1021.19 1021.37 1021.57 1021.79 1022.05 1022.32 1022.60 1022.90 1023.19 1023.47 1023.72 1023.93 1024.09 1024.21 1024.28 1024.31 1024.34
1018.97 1019.16 1019.37 1019.59 1019.82 1020.05 1020.27 1020.48 1020.67 1020.83 1020.94 1021.02 1021.04 1021.02 1020.96 1020.87 1020.76 1020.64 1020.52 1020.43 1020.37 1020.34 1020.36 1020.42 1020.51 1020.63 1020.78 1020.95 1021.14 1021.35 1021.58 1021.85 1022.14 1022.46 1022.78 1023.10 1023.41 1023.67 1023.89 1024.05 1024.16 1024.22 1024.26
1018.50 1018.68 1018.89 1019.12 1019.34 1019.57 1019.78 1019.96 1020.13 1020.26 1020.37 1020.45 1020.49 1020.50 1020.47 1020.41 1020.33 1020.24 1020.15 1020.07 1020.02 1020.01 1020.04 1020.10 1020.20 1020.31 1020.45 1020.59 1020.75 1020.93 1021.13 1021.37 1021.64 1021.95 1022.30 1022.66 1023.01 1023.34 1023.62 1023.84 1023.99 1024.09 1024.15
1018.09 1018.24 1018.43 1018.62 1018.82 1019.01 1019.18 1019.34 1019.47 1019.59 1019.70 1019.79 1019.86 1019.91 1019.94 1019.94 1019.91 1019.86 1019.81 1019.77 1019.75 1019.76 1019.80 1019.87 1019.97 1020.08 1020.19 1020.31 1020.42 1020.54 1020.69 1020.88 1021.12 1021.42 1021.78 1022.17 1022.57 1022.96 1023.30 1023.59 1023.80 1023.94 1024.02
1017.81 1017.92 1018.05 1018.19 1018.33 1018.46 1018.58 1018.68 1018.78 1018.88 1018.99 1019.10 1019.22 1019.32 1019.40 1019.46 1019.50 1019.51 1019.50 1019.50 1019.52 1019.55 1019.62 1019.71 1019.81 1019.91 1020.00 1020.08 1020.14 1020.20 1020.29 1020.42 1020.62 1020.90 1021.24 1021.66 1022.10 1022.55 1022.96 1023.31 1023.58 1023.78 1023.90
1017.73 1017.77 1017.83 1017.89 1017.96 1018.01 1018.06 1018.11 1018.17 1018.26 1018.36 1018.50 1018.64 1018.79 1018.93 1019.05 1019.13 1019.19 1019.23 1019.27 1019.31 1019.38 1019.47 1019.58 1019.68 1019.78 1019.85 1019.89 1019.91 1019.91 1019.94 1020.01 1020.16 1020.40 1020.74 1021.17 1021.65 1022.15 1022.62 1023.04 1023.38 1023.62 1023.78
1017.88 1017.86 1017.84 1017.82 1017.80 1017.77 1017.74 1017.74 1017.75 1017.81 1017.91 1018.06 1018.22 1018.41 1018.58 1018.73 1018.84 1018.93 1019.00 1019.07 1019.14 1019.23 1019.34 1019.46 1019.58 1019.68 1019.74 1019.75 1019.73 1019.68 1019.66 1019.67 1019.78 1019.99 1020.32 1020.75 1021.26 1021.79 1022.32 1022.79 1023.18 1023.47 1023.66
1018.28 1018.20 1018.11 1018.01 1017.91 1017.80 1017.70 1017.64 1017.61 1017.64 1017.73 1017.86 1018.04 1018.22 1018.40 1018.56 1018.68 1018.78 1018.86 1018.93 1019.01 1019.12 1019.25 1019.39 1019.52 1019.62 1019.67 1019.67 1019.62 1019.54 1019.47 1019.45 1019.52 1019.70 1020.01 1020.44 1020.95 1021.51 1022.07 1022.58 1023.00 1023.32 1023.54
1018.89 1018.77 1018.62 1018.46 1018.29 1018.11 1017.96 1017.84 1017.78 1017.78 1017.84 1017.96 1018.12 1018.29 1018.45 1018.59 1018.69 1018.77 1018.83 1018.90 1018.98 1019.09 1019.22 1019.38 1019.52 1019.63 1019.69 1019.68 1019.62 1019.52 1019.42 1019.37 1019.41 1019.56 1019.85 1020.26 1020.77 1021.33 1021.90 1022.42 1022.85 1023.19 1023.42
1019.62 1019.49 1019.31 1019.10 1018.89 1018.67 1018.47 1018.32 1018.23 1018.20 1018.24 1018.34 1018.47 1018.61 1018.74 1018.84 1018.90 1018.94 1018.97 1019.02 1019.08 1019.19 1019.32 1019.48 1019.63 1019.75 1019.82 1019.81 1019.74 1019.64 1019.53 1019.46 1019.47 1019.60 1019.86 1020.24 1020.72 1021.26 1021.80 1022.31 1022.73 1023.06 1023.29
1020.38 1020.24 1020.06 1019.84 1019.61 1019.37 1019.17 1019.00 1018.90 1018.86 1018.89 1018.96 1019.06 1019.17 1019.25 1019.30 1019.33 1019.32 1019.31 1019.32 1019.36 1019.45 1019.58 1019.73 1019.89 1020.01 1020.08 1020.08 1020.02 1019.92 1019.80 1019.72 1019.71 1019.81 1020.04 1020.38 1020.81 1021.30 1021.79 1022.25 1022.64 1022.94 1023.15
1021.05 1020.93 1020.77 1020.56 1020.34 1020.13 1019.94 1019.79 1019.70 1019.67 1019.69 1019.76 1019.84 1019.91 1019.96 1019.97 1019.94 1019.90 1019.85 1019.82 1019.83 1019.90 1020.01 1020.15 1020.30 1020.42 1020.49 1020.50 1020.44 1020.34 1020.23 1020.14 1020.12 1020.19 1020.37 1020.66 1021.02 1021.44 1021.86 1022.25 1022.57 1022.82 1022.99
1021.55 1021.47 1021.34 1021.18 1021.00 1020.83 1020.69 1020.58 1020.52 1020.52 1020.57 1020.63 1020.71 1020.76 1020.79 1020.77 1020.71 1020.63 1020.54 1020.49 1020.47 1020.51 1020.59 1020.72 1020.85 1020.96 1021.03 1021.04 1020.99 1020.90 1020.79 1020.70 1020.66 1020.70 1020.83 1021.05 1021.34 1021.66 1021.98 1022.28 1022.53 1022.71 1022.83
1021.87 1021.83 1021.75 1021.65 1021.54 1021.44 1021.36 1021.31 1021.31 1021.35 1021.42 1021.51 1021.59 1021.65 1021.66 1021.62 1021.54 1021.44 1021.33 1021.25 1021.21 1021.22 1021.28 1021.37 1021.48 1021.58 1021.64 1021.65 1021.61 1021.53 1021.43 1021.34 1021.29 1021.30 1021.38 1021.52 1021.71 1021.93 1022.15 1022.34 1022.50 1022.60 1022.67
1022.03 1022.05 1022.03 1022.01 1021.97 1021.94 1021.94 1021.96 1022.02 1022.11 1022.22 1022.33 1022.43 1022.49 1022.50 1022.46 1022.37 1022.25 1022.13 1022.03 1021.97 1021.95 1021.98 1022.06 1022.14 1022.22 1022.28 1022.29 1022.26 1022.18 1022.10 1022.01 1021.94 1021.92 1021.94 1022.02 1022.12 1022.23 1022.34 1022.42 1022.47 1022.50 1022.50
1022.13 1022.19 1022.25 1022.29 1022.33 1022.38 1022.45 1022.53 1022.64 1022.78 1022.92 1023.05 1023.16 1023.22 1023.24 1023.20 1023.11 1022.99 1022.86 1022.75 1022.67 1022.63 1022.64 1022.69 1022.76 1022.83 1022.87 1022.89 1022.87 1022.81 1022.74 1022.65 1022.58 1022.53 1022.50 1022.50 1022.51 1022.52 1022.52 1022.50 1022.46 1022.40 1022.35
1022.24 1022.36 1022.48 1022.59 1022.70 1022.81 1022.93 1023.06 1023.20 1023.35 1023.51 1023.65 1023.75 1023.82 1023.83 1023.79 1023.70 1023.59 1023.46 1023.34 1023.25 1023.20 1023.20 1023.23 1023.28 1023.34 1023.39 1023.42 1023.41 1023.38 1023.31 1023.24 1023.16 1023.08 1023.01 1022.94 1022.87 1022.79 1022.69 1022.58 1022.45 1022.32 1022.21
1022.43 1022.61 1022.78 1022.95 1023.11 1023.26 1023.40 1023.55 1023.70 1023.85 1023.99 1024.11 1024.21 1024.26 1024.26 1024.22 1024.13 1024.01 1023.89 1023.77 1023.68 1023.63 1023.62 1023.64 1023.69 1023.76 1023.82 1023.85 1023.86 1023.85 1023.80 1023.74 1023.65 1023.55 1023.44 1023.32 1023.18 1023.02 1022.84 1022.65 1022.45 1022.26 1022.10
1022.74 1022.97 1023.19 1023.39 1023.58 1023.74 1023.88 1024.01 1024.14 1024.26 1024.36 1024.46 1024.52 1024.55 1024.54 1024.48 1024.39 1024.28 1024.16 1024.05 1023.96 1023.91 1023.90 1023.93 1023.99 1024.06 1024.13 1024.19 1024.22 1024.22 1024.19 1024.14 1024.05 1023.93 1023.79 1023.62 1023.43 1023.21 1022.97 1022.71 1022.46 1022.22 1022.02
1023.14 1023.42 1023.66 1023.88 1024.06 1024.21 1024.32 1024.42 1024.50 1024.57 1024.62 1024.67 1024.70 1024.70 1024.67 1024.60 1024.51 1024.41 1024.30 1024.20 1024.12 1024.08 1024.09 1024.12 1024.19 1024.27 1024.36 1024.43 1024.48 1024.50 1024.48 1024.42 1024.33 1024.20 1024.04 1023.84 1023.61 1023.35 1023.07 1022.78 1022.49 1022.22 1022.00
1023.56 1023.86 1024.12 1024.34 1024.50 1024.61 1024.68 1024.72 1024.74 1024.75 1024.76 1024.77 1024.76 1024.73 1024.69 1024.62 1024.54 1024.45 1024.35 1024.27 1024.21 1024.18 1024.19 1024.24 1024.32 1024.41 1024.50 1024.58 1024.64 1024.67 1024.66 1024.60 1024.51 1024.37 1024.19 1023.98 1023.73 1023.45 1023.15 1022.84 1022.54 1022.26 1022.01
1023.90 1024.21 1024.47 1024.67 1024.79 1024.86 1024.88 1024.87 1024.85 1024.81 1024.78 1024.75 1024.72 1024.69 1024.65 1024.59 1024.52 1024.44 1024.37 1024.30 1024.26 1024.25 1024.27 1024.32 1024.39 1024.49 1024.58 1024.66 1024.72 1024.75 1024.74 1024.68 1024.58 1024.44 1024.26 1024.04 1023.78 1023.50 1023.20 1022.90 1022.59 1022.31 1022.05
Thickness
5690 5689 5687 5685 5683 5682 5679 5677 5675 5672 5670 5668 5665 5663 5660 5658 5656 5653 5651 5648 5645 5642 5640 5637 5634 5631 5628 5625 5623 5620 5617 5615 5613 5611 5609 5608 5607 5606 5605 5604 5604 5603 5603
5688 5686 5684 5682 5680 5679 5677 5674 5671 5669 5666 5664 5661 5659 5657 5655 5652 5650 5647 5645 5641 5638 5635 5632 5630 5626 5623 5620 5617 5614 5611 5609 5606 5604 5602 5601 5600 5598 5597 5597 5596 5596 5596
5685 5683 5681 5679 5677 5676 5673 5670 5667 5665 5662 5660 5658 5656 5654 5652 5649 5646 5644 5641 5638 5635 5631 5628 5625 5622 5619 5616 5612 5609 5606 5603 5600 5597 5595 5593 5592 5591 5590 5589 5589 5588 5589
5682 5680 5677 5676 5675 5672 5669 5666 5663 5660 5658 5655 5653 5652 5650 5648 5646 5643 5640 5637 5633 5630 5627 5623 5620 5617 5614 5610 5607 5604 5600 5597 5594 5591 5588 5586 5584 5582 5582 5581 5581 5580 5581
5679 5677 5675 5673 5671 5668 5665 5663 5660 5657 5654 5652 5650 5648 5646 5644 5642 5639 5636 5633 5629 5626 5623 5619 5615 5611 5608 5605 5602 5599 5595 5591 5587 5584 5581 5578 5576 5574 5573 5572 5572 5572 5572
5675 5674 5672 5670 5667 5664 5662 5659 5656 5654 5651 5649 5646 5645 5643 5640 5638 5635 5631 5628 5625 5621 5617 5613 5609 5606 5602 5598 5595 5592 5590 5586 5581 5577 5574 5571 5569 5566 5565 5563 5563 5563 5563
5671 5669 5668 5666 5663 5661 5659 5656 5653 5649 5646 5643 5639 5638 5638 5636 5633 5630 5626 5623 5619 5615 5611 5607 5602 5599 5595 5592 5588 5585 5582 5579 5575 5571 5567 5564 5560 5558 5556 5554 5553 5553 5554
5665 5664 5663 5661 5659 5656 5654 5651 5648 5644 5642 5637 5632 5629 5629 5629 5628 5625 5621 5616 5613 5608 5604 5599 5595 5591 5588 5584 5581 5578 5574 5571 5567 5563 5559 5555 5552 5549 5547 5545 5544 5544 5544
5658 5657 5656 5655 5653 5651 5649 5646 5643 5639 5636 5632 5627 5623 5620 5621 5620 5619 5614 5609 5604 5599 5595 5591 5587 5583 5579 5575 5572 5569 5565 5562 5558 5555 5551 5547 5543 5540 5538 5537 5536 5535 5535
5649 5649 5648 5647 5646 5644 5642 5640 5637 5633 5630 5626 5621 5618 5615 5613 5609 5611 5607 5601 5595 5590 5586 5582 5578 5574 5569 5566 5562 5558 5555 5551 5547 5544 5541 5538 5534 5531 5529 5528 5527 5527 5526
5639 5639 5639 5638 5637 5636 5634 5632 5629 5626 5623 5620 5616 5612 5607 5603 5600 5598 5599 5594 5587 5581 5576 5571 5567 5563 5558 5553 5549 5545 5542 5538 5535 5532 5530 5528 5525 5522 5520 5519 5517 5516 5515
5628 5627 5628 5627 5627 5626 5624 5623 5621 5618 5616 5612 5609 5605 5600 5596 5592 5588 5588 5585 5579 5572 5565 5560 5555 5550 5546 5541 5536 5532 5528 5525 5522 5520 5519 5517 5515 5512 5510 5509 5507 5505 5504
5615 5615 5616 5615 5615 5614 5614 5613 5611 5609 5606 5602 5599 5595 5591 5587 5583 5580 5577 5575 5569 5562 5554 5548 5541 5536 5532 5528 5523 5519 5515 5512 5510 5508 5507 5506 5504 5501 5499 5498 5497 5494 5493
5603 5603 5604 5603 5603 5603 5602 5601 5599 5597 5594 5591 5587 5584 5580 5575 5571 5568 5566 5562 5559 5553 5544 5537 5529 5523 5519 5515 5511 5506 5503 5500 5498 5496 5495 5494 5492 5490 5488 5487 5485 5484 5482
5592 5592 5592 5591 5591 5591 5590 5589 5587 5584 5581 5578 5574 5571 5567 5562 5558 5555 5552 5549 5546 5545 5538 5526 5517 5512 5507 5504 5499 5495 5492 5489 5486 5485 5482 5481 5479 5477 5476 5475 5474 5472 5471
5579 5579 5579 5579 5578 5577 5576 5575 5573 5571 5568 5564 5561 5558 5553 5549 5545 5542 5538 5535 5532 5530 5525 5513 5504 5499 5495 5492 5489 5485 5481 5478 5476 5474 5472 5470 5468 5466 5464 5462 5461 5460 5459
5566 5566 5566 5565 5564 5563 5562 5561 5559 5557 5554 5550 5547 5544 5539 5536 5532 5528 5524 5521 5517 5514 5510 5500 5492 5488 5484 5481 5477 5474 5471 5467 5465 5463 5460 5459 5457 5455 5453 5452 5450 5449 5448
5553 5553 5553 5552 5551 5550 5548 5547 5545 5542 5540 5536 5532 5529 5525 5522 5518 5514 5510 5506 5503 5499 5496 5490 5482 5476 5473 5469 5466 5463 5460 5457 5454 5452 5450 5448 5447 5445 5443 5441 5439 5438 5437
5540 5540 5540 5539 5537 5536 5535 5533 5531 5528 5525 5522 5519 5516 5512 5509 5504 5500 5497 5493 5489 5487 5482 5477 5470 5465 5461 5458 5455 5452 5449 5446 5444 5442 5439 5437 5435 5433 5431 5430 5428 5426 5425
5527 5527 5527 5525 5524 5522 5521 5520 5518 5515 5512 5508 5505 5503 5499 5496 5493 5489 5485 5481 5478 5473 5469 5464 5459 5454 5450 5447 5443 5439 5437 5434 5432 5431 5428 5426 5424 5422 5420 5418 5416 5415 5413
5516 5515 5514 5513 5512 5511 5509 5507 5505 5502 5499 5495 5492 5490 5487 5485 5483 5479 5475 5470 5466 5461 5457 5452 5447 5443 5438 5434 5430 5427 5424 5422 5421 5418 5416 5415 5413 5411 5408 5406 5404 5402 5400
5503 5503 5502 5502 5501 5501 5499 5496 5493 5489 5486 5483 5480 5477 5475 5472 5470 5468 5464 5461 5457 5451 5446 5441 5435 5431 5426 5422 5419 5417 5412 5410 5408 5407 5403 5402 5401 5398 5396 5394 5391 5390 5388
5492 5490 5490 5489 5489 5489 5488 5485 5482 5478 5474 5471 5468 5465 5464 5461 5458 5454 5452 5449 5446 5442 5438 5432 5426 5421 5417 5414 5409 5405 5401 5397 5394 5393 5390 5388 5387 5384 5383 5381 5378 5377 5375
5481 5479 5478 5478 5478 5478 5477 5474 5471 5467 5463 5460 5458 5455 5453 5450 5448 5445 5441 5437 5434 5430 5427 5423 5418 5413 5409 5405 5400 5395 5391 5387 5384 5381 5377 5372 5371 5370 5370 5368 5365 5364 5362
5471 5469 5468 5467 5467 5467 5467 5465 5461 5457 5454 5451 5449 5446 5444 5441 5441 5437 5432 5428 5424 5420 5417 5413 5409 5404 5400 5396 5391 5385 5380 5374 5370 5367 5363 5358 5355 5353 5354 5353 5351 5349 5347
5462 5461 5459 5458 5458 5457 5458 5456 5453 5449 5445 5443 5440 5438 5436 5434 5432 5429 5423 5419 5414 5410 5406 5402 5397 5393 5388 5383 5379 5373 5367 5359 5354 5351 5349 5344 5339 5336 5335 5337 5335 5333 5331